Location: Bernay
(48.6766°N, 2.9386°E)
Time: 21:38:26
(UTC+00:00)

COSMOS 2455 - Pass Details

Date: 12 January 2026
Orbit: 899 x 909 km, 67.1° (Epoch: 17 February)

Event Time Altitude Azimuth Distance (km) Brightness Sun altitude
Rises 17:42:05 0° 321° (NW) 3,548 6.2 -13.7°
Reaches altitude 10° 17:45:33 10° 341° (NNW) 2,605 5.3 -14.2°
Maximum altitude 17:49:29 18° 22° (NNE) 2,111 4.4 -14.9°
Enters shadow 17:51:05 16° 41° (NE) 2,199 4.4 -15.1°
